Regional Weather Roundup
Issued by NWS

Home | Current Version | Previous Version | Text Only | Print | Product List | Glossary On
Versions: 1 2 3 4 5 6 7 8 9 10 11 12 13 14 15 16 17 18 19 20 21 22 23 24 25 26 27 28 29 30 31 32 33 34 35 36 37 38 39 40 41 42 43 44 45 46 47 48 49 50
000
ASUS43 KDTX 270510
RWRMI
MICHIGAN HOURLY REGIONAL WEATHER ROUNDUP
NATIONAL WEATHER SERVICE DETROIT/PONTIAC MI
100 AM EDT WED JUL 27 2016

NOTE: "FAIR" INDICATES FEW OR NO CLOUDS BELOW 12,000 FEET WITH NO
SIGNIFICANT WEATHER AND/OR OBSTRUCTION TO VISIBILITY.

MIZ047>049-052>055-059>063-066>070-074>076-081>083-270600-
SOUTHEAST LOWER MICHIGAN

CITY           SKY/WX    TMP DP  RH WIND       PRES   REMARKS
ADRIAN         CLEAR     66  63  90 CALM      30.02S
ALMA           CLEAR     68  64  88 CALM      30.01S
ANN ARBOR      CLEAR     62  61  96 CALM      30.01S
BAD AXE        CLEAR     64  58  81 CALM      29.98F
CARO           CLEAR     64  63  97 CALM      29.98S
DETROIT CITY   CLEAR     74  64  71 SW3       30.00S
DETROIT        PTCLDY    72  61  68 S3        30.01S
FLINT          CLEAR     67  61  81 CALM      30.00S
GROSSE ILE     CLEAR     73  65  78 CALM      29.99F
HOWELL         CLEAR     69  63  83 SW3       30.02S

CITY           SKY/WX    TMP DP  RH WIND       PRES   REMARKS
JACKSON        CLEAR     67  65  93 SW3       30.02F
LAMBERTVILLE   CLEAR     67  63  85 CALM      30.02S
LANSING        CLEAR     69  64  84 CALM      30.01S
LAPEER         FAIR      65  64  96 CALM      30.00S
MASON          CLEAR     67  63  86 CALM      30.02S
MONROE         CLEAR     66  64  94 CALM      30.00S
MT. CLEMENS    PTCLDY    74  62  65 SW6       29.98S
PONTIAC        CLEAR     72  62  71 S3        30.00F
PORT HURON     CLEAR     64  64 100 CALM      29.99F
TRI CITIES     CLEAR     70  64  81 W7        29.99S
MIDLAND        FAIR      70  62  74 CALM      29.99S
TROY           CLEAR     76  59  56 SW3       30.02S
SAGINAW HB     CLEAR     72  63  73 W6        29.98F
$$
MIZ043>046-050>051-056>058-064>065-071>073-077>080-270600-
SOUTHWEST LOWER MICHIGAN

CITY           SKY/WX    TMP DP  RH WIND       PRES   REMARKS
BATTLE CREEK   CLEAR     68  66  93 CALM      30.03S
BENTON HARBOR  CLEAR     64  61  90 CALM      30.02R FOG
BIG RAPIDS     CLEAR     65  65  98 CALM      30.00F
COLDWATER      CLEAR     66  65  96 CALM      30.03S
FREMONT        FAIR      64  64 100 S3        30.01S
HOLLAND        CLEAR     65  63  93 CALM      30.02S
GRAND RAPIDS   CLEAR     69  62  78 CALM      30.01F
IONIA          FAIR      68  60  74 SW6       30.00F
KALAMAZOO      CLEAR     69  63  81 CALM      30.02F
LUDINGTON      CLEAR     72  68  88 SW6       29.98F
MARSHALL       CLEAR     68  66  94 CALM      30.03S
MOUNT PLEASANT CLEAR     71  62  74 W5        30.00S
MUSKEGON         N/A     68  65  90 CALM      30.01S
SOUTH HAVEN    CLEAR     63  63  98 CALM      30.02S
$$
MIZ016>042-270600-
NORTHERN LOWER MICHIGAN

CITY           SKY/WX    TMP DP  RH WIND       PRES   REMARKS
ALPENA         CLEAR     65  62  90 S3        29.95R
BEAVER ISLAND  PTCLDY    72  66  83 SW12G17   29.92F
BELLAIRE       CLEAR     74  62  67 S5        29.95F
CADILLAC       CLEAR     67  59  76 SW3       30.00F
CHARLEVOIX     CLEAR     75  61  60 SW8       29.95F
FRANKFORT      CLEAR     74  65  75 SW5       29.96F
GAYLORD        CLEAR     72  60  66 SW10      29.97F
GRAYLING       CLEAR     71  61  69 SW3       29.99F
HARBOR SPRINGS PTCLDY    75  64  67 SW3       29.93S
HOUGHTON LAKE  CLEAR     74  62  66 W7        30.00F
MANISTEE       CLEAR     67  63  87 CALM      29.98S
OSCODA         CLEAR     69  60  71 CALM      29.95S
PELLSTON       PTCLDY    74  63  68 SW5       29.92S
ROGERS CITY    CLOUDY    74  60  60 SW7       29.93F
TRAVERSE CITY  CLEAR     76  58  53 SW6       29.94S
$$
MIZ007>008-015-270600-
EASTERN UPPER MICHIGAN

CITY           SKY/WX    TMP DP  RH WIND       PRES   REMARKS
KINROSS        MOCLDY    67  65  93 CALM      29.93F
MACKINAC ISLAN CLOUDY    70  64  81 W7        29.92S
NEWBERRY       PTCLDY    66  64  94 SW5       29.91F
S. S. MARIE    PTCLDY    67  65  93 CALM      29.90F
$$
MIZ004>006-011>014-085-270600-
CENTRAL UPPER MICHIGAN

CITY           SKY/WX    TMP DP  RH WIND       PRES   REMARKS
MANISTIQUE     CLOUDY    67  66  97 W3        29.92R
ESCANABA       PTCLDY    68  63  83 CALM      29.92R
MENOMINEE      CLEAR    N/A N/A N/A CALM      29.95R
SAWYER-GWINN   CLEAR     65  64  95 NW5       29.95S
$$
MIZ001>003-009>011-084-270600-
WESTERN UPPER MICHIGAN

CITY           SKY/WX    TMP DP  RH WIND       PRES   REMARKS
IRON MOUNTAIN  PTCLDY    67  63  87 CALM      29.95F
HOUGHTON       CLEAR     68  64  87 NW9       29.94S
IRONWOOD       MOCLDY    66  66 100 CALM      29.96R
$$

ABBREVIATIONS USED IN REMARKS
   TC - TEMPERATURE IN CELSIUS
  WCI - WIND CHILL INDEX
   HX - HEAT INDEX
  VSB - VISIBILITY





USA.gov is the U.S. government's official web portal to all federal, state and local government web resources and services.